Retour au catalogue

STARLINK-30754

ActifCommunicationsVLEO
NORAD 58124·PAYLOAD·🇺🇸 United States

Lancé Oct 22, 2023 depuis Cape Canaveral Space Force Station

Loading…

Prochains Passages (prochaines 24 heures)

TLE

FraisSource: CelesTrak SupGP

Époque: Sep 15, 2026, 02:58 UTC

1 58124C 23162G   26258.12409722  .00059786  00000+0  21656-2 0  2588
2 58124  43.0009 142.5944 0001475 279.5156 285.8722 15.27545732    15

Suivez STARLINK-30754 en temps réel avec AllMySat

Download on the App Store